This is the latest recevied weather packets stored in our database for station/object K1WJY. If no packets are shown the sender has not sent any weather packets the latest 10 day(s).
| Time | Temp. | Humidity | Pressure | Rain* | Wind** | Luminosity | Snow |
|---|---|---|---|---|---|---|---|
| 1788121498 | 23.33° C | 70% | 1015.4 hPa | 0 mm | - | 135 W/m² | - |
| 1788121194 | 23.33° C | 70% | 1015.5 hPa | 0 mm | - | 137 W/m² | - |
| 1788120893 | 23.33° C | 70% | 1015.4 hPa | 0 mm | - | 133 W/m² | - |
| 1788120589 | 23.89° C | 68% | 1015.4 hPa | 0 mm | - | 127 W/m² | - |
| 1788120289 | 23.89° C | 67% | 1015.8 hPa | 0 mm | - | 161 W/m² | - |
| 1788119988 | 23.89° C | 66% | 1015.6 hPa | 0 mm | - | 195 W/m² | - |
| 1788119684 | 23.89° C | 67% | 1015.6 hPa | 0 mm | - | 246 W/m² | - |
| 1788119382 | 23.89° C | 68% | 1015.7 hPa | 0 mm | - | 174 W/m² | - |
| 1788119081 | 23.89° C | 69% | 1015.9 hPa | 0 mm | - | 293 W/m² | - |
| 1788118782 | 23.89° C | 69% | 1015.9 hPa | 0 mm | - | 252 W/m² | - |
| 1788118480 | 23.89° C | 68% | 1016 hPa | 0 mm | - | 224 W/m² | - |
| 1788118176 | 23.89° C | 69% | 1016.1 hPa | 0 mm | - | 192 W/m² | - |
| 1788117871 | 23.89° C | 69% | 1016.2 hPa | 0 mm | - | 240 W/m² | - |
| 1788117567 | 24.44° C | 68% | 1016.1 hPa | 0 mm | - | 218 W/m² | - |
| 1788117266 | 24.44° C | 67% | 1016.2 hPa | 0 mm | - | 189 W/m² | - |
| 1788116962 | 24.44° C | 66% | 1016.4 hPa | 0 mm | - | 173 W/m² | - |
| 1788116657 | 24.44° C | 65% | 1016.3 hPa | 0 mm | - | 212 W/m² | - |
| 1788116356 | 25° C | 64% | 1016.4 hPa | 0 mm | - | 172 W/m² | - |
| 1788116051 | 25° C | 65% | 1016.5 hPa | 0 mm | - | 343 W/m² | - |
| 1788115747 | 25° C | 63% | 1016.4 hPa | 0 mm | - | 291 W/m² | - |
| 1788115445 | 24.44° C | 64% | 1016.4 hPa | 0 mm | - | 180 W/m² | - |
| 1788115140 | 25° C | 64% | 1016.6 hPa | 0 mm | - | 178 W/m² | - |
| 1788114840 | 25° C | 63% | 1016.5 hPa | 0 mm | - | 169 W/m² | - |
| 1788114535 | 25° C | 63% | 1016.5 hPa | 0 mm | - | 177 W/m² | - |
| 1788114231 | 25° C | 64% | 1016.6 hPa | 0 mm | - | 226 W/m² | - |
* Rain latest hour (hover to see other rain measurements)
** Current wind speed in m/s (hover to see current wind gust speed)